Weather History for KJZI - August, 2013

Change the Weather History Date:

Thursday, August 22, 2013

  Actual Average (KCHS) Record (KCHS)
Temperature  
Mean Temperature 82 °F 80 °F  
Max Temperature 89 °F 89 °F 100 °F (1983)
Min Temperature 75 °F 72 °F 63 °F (1953)
Degree Days  
Heating Degree Days 0 0  
Month to date heating degree days 0  
Since 1 June heating degree days 1  
Since 1 July heating degree days 0  
Cooling Degree Days 17 15  
Month to date cooling degree days 360  
Year to date cooling degree days 1672  
Since 1 June cooling degree days 1310  
Growing Degree Days 32 (Base 50)    
Moisture  
Dew Point 74 °F    
Average Humidity 80    
Maximum Humidity 94    
Minimum Humidity 55    
Precipitation  
Precipitation 0.08 in 0.26 in 1.58 in (2005)
Month to date precipitation 4.89  
Year to date precipitation 33.38  
Sea Level Pressure  
Sea Level Pressure 30.12 in    
Wind  
Wind Speed 1 mph (SSW)    
Max Wind Speed 12 mph    
Max Gust Speed -    
Visibility 9 miles    
Events Rain , Thunderstorm    
T = Trace of Precipitation, MM = Missing Value Source: NWS Daily Summary

Daily Weather History Graph

Daily Weather History Graph

Search for Another Location

Airport or City:

Trip Planner

Search our weather history database for the weather conditions in past years. The results will help you decide how hot, cold, wet, or windy it might be!

Date:

Astronomy

Aug. 22, 2013 Rise Set
Actual Time 6:48 AM EDT 7:56 PM EDT
Civil Twilight 6:22 AM EDT 8:22 PM EDT
Nautical Twilight 5:52 AM EDT 8:52 PM EDT
Astronomical Twilight 5:20 AM EDT 9:23 PM EDT
Moon 8:50 PM EDT (8/22) 8:26 AM EDT (8/22)
Length of Visible Light 13h 59m
Length of Day
13h 08m
Waning Gibbous, 97% of the Moon is Illuminated
Aug 22
Waning Gibbous
Aug 28
Last Quarter
Sep 5
New
Sep 12
First Quarter
Sep 19
Full

Hourly Weather History & Observations

Time (EDT) Temp. Heat Index Dew Point Humidity Pressure Visibility Wind Dir Wind Speed Gust Speed Precip Events Conditions
12:15 AM 77.0 °F - 75.2 °F 94% 30.16 in 10.0 mi Calm Calm - 0.00 in   Clear
12:35 AM 77.0 °F - 75.2 °F 94% 30.16 in 10.0 mi Calm Calm - 0.00 in   Clear
12:55 AM 78.8 °F - 73.4 °F 83% 30.16 in 10.0 mi Calm Calm - 0.00 in   Clear
1:15 AM 77.0 °F - 73.4 °F 89% 30.15 in 10.0 mi Calm Calm - 0.00 in   Clear
1:35 AM 77.0 °F - 75.2 °F 94% 30.15 in 10.0 mi Calm Calm - 0.00 in   Clear
1:55 AM 77.0 °F - 73.4 °F 89% 30.14 in 5.0 mi Calm Calm - 0.00 in   Clear
2:15 AM 77.0 °F - 73.4 °F 89% 30.14 in 6.0 mi Calm Calm - 0.00 in   Clear
2:35 AM 77.0 °F - 75.2 °F 94% 30.14 in 9.0 mi Calm Calm - 0.00 in   Clear
2:55 AM 77.0 °F - 73.4 °F 89% 30.14 in 9.0 mi Calm Calm - 0.00 in   Clear
3:15 AM 75.2 °F - 73.4 °F 94% 30.14 in 10.0 mi Calm Calm - 0.00 in   Clear
3:35 AM 75.2 °F - 73.4 °F 94% 30.15 in 10.0 mi Calm Calm - 0.00 in   Clear
3:55 AM 77.0 °F - 75.2 °F 94% 30.15 in 10.0 mi Calm Calm - 0.00 in   Clear
4:15 AM 77.0 °F - 75.2 °F 94% 30.15 in 10.0 mi Calm Calm - 0.00 in   Clear
4:35 AM 78.8 °F - 75.2 °F 89% 30.14 in 10.0 mi NNW 4.6 mph - 0.00 in   Clear
4:55 AM 78.8 °F - 75.2 °F 89% 30.14 in 10.0 mi North 3.5 mph - 0.00 in Thunderstorm Clear
5:15 AM 78.8 °F - 75.2 °F 89% 30.14 in 7.0 mi Calm Calm - 0.00 in Thunderstorm Clear
5:35 AM 78.8 °F - 75.2 °F 89% 30.14 in 10.0 mi Calm Calm - 0.00 in Thunderstorm Clear
5:55 AM 78.8 °F - 75.2 °F 89% 30.14 in 9.0 mi Calm Calm - 0.00 in Rain , Thunderstorm Light Rain
6:15 AM 77.0 °F - 75.2 °F 94% 30.15 in 9.0 mi Calm Calm - 0.00 in Rain Light Rain
6:35 AM 77.0 °F - 75.2 °F 94% 30.16 in 5.0 mi SW 5.8 mph - 0.01 in Rain Light Rain
6:55 AM 75.2 °F - 73.4 °F 94% 30.16 in 5.0 mi Calm Calm - 0.03 in Rain Light Rain
7:15 AM 75.2 °F - 73.4 °F 94% 30.16 in 10.0 mi Calm Calm - 0.00 in   Scattered Clouds
7:35 AM 75.2 °F - 73.4 °F 94% 30.17 in 2.0 mi Calm Calm - 0.02 in Rain Rain
7:55 AM 75.2 °F - 73.4 °F 94% 30.16 in 5.0 mi Calm Calm - 0.04 in Rain Light Rain
8:15 AM 75.2 °F - 73.4 °F 94% 30.16 in 5.0 mi Calm Calm - 0.01 in Rain Light Rain
8:35 AM 75.2 °F - 73.4 °F 94% 30.17 in 10.0 mi Calm Calm - 0.01 in   Scattered Clouds
8:55 AM 75.2 °F - 73.4 °F 94% 30.16 in 10.0 mi Calm Calm - 0.01 in   Partly Cloudy
9:15 AM 77.0 °F - 73.4 °F 89% 30.17 in 10.0 mi Calm Calm - 0.00 in   Partly Cloudy
9:35 AM 78.8 °F - 73.4 °F 83% 30.17 in 10.0 mi Calm Calm - 0.00 in   Partly Cloudy
9:55 AM 80.6 °F 86.2 °F 75.2 °F 84% 30.16 in 10.0 mi Calm Calm - 0.00 in   Clear
10:15 AM 82.4 °F 89.5 °F 75.2 °F 79% 30.15 in 10.0 mi Calm Calm - 0.00 in   Scattered Clouds
10:35 AM 82.4 °F 89.5 °F 75.2 °F 79% 30.15 in 10.0 mi Calm Calm - 0.00 in   Partly Cloudy
10:55 AM 82.4 °F 89.5 °F 75.2 °F 79% 30.15 in 10.0 mi Calm Calm - 0.00 in   Partly Cloudy
11:15 AM 82.4 °F 89.5 °F 75.2 °F 79% 30.16 in 10.0 mi Calm Calm - 0.00 in   Scattered Clouds
11:35 AM 84.2 °F 92.3 °F 75.2 °F 74% 30.16 in 10.0 mi Calm Calm - 0.00 in   Partly Cloudy
11:55 AM 84.2 °F 92.3 °F 75.2 °F 74% 30.16 in 10.0 mi Calm Calm - 0.00 in   Partly Cloudy
12:15 PM 84.2 °F 92.3 °F 75.2 °F 74% 30.16 in 10.0 mi Calm Calm - 0.00 in   Mostly Cloudy
12:35 PM 84.2 °F 92.3 °F 75.2 °F 74% 30.15 in 10.0 mi Calm Calm - 0.00 in   Scattered Clouds
12:55 PM 84.2 °F 92.3 °F 75.2 °F 74% 30.14 in 10.0 mi Calm Calm - 0.00 in   Partly Cloudy
1:15 PM 86.0 °F 93.4 °F 73.4 °F 66% 30.13 in 10.0 mi Calm Calm - 0.00 in   Partly Cloudy
1:35 PM 86.0 °F 95.1 °F 75.2 °F 70% 30.13 in 10.0 mi Calm Calm - 0.00 in   Scattered Clouds
1:55 PM 87.8 °F 97.6 °F 75.2 °F 66% 30.12 in 10.0 mi Calm Calm - 0.00 in   Clear
2:15 PM 87.8 °F 97.6 °F 75.2 °F 66% 30.11 in 10.0 mi SSE 4.6 mph - 0.00 in   Partly Cloudy
2:35 PM 87.8 °F 95.6 °F 73.4 °F 62% 30.11 in 10.0 mi Calm Calm - 0.00 in   Partly Cloudy
2:55 PM 89.6 °F 98.2 °F 73.4 °F 59% 30.09 in 10.0 mi Calm Calm - 0.00 in   Clear
3:15 PM 87.8 °F 95.6 °F 73.4 °F 62% 30.09 in 10.0 mi SSE 4.6 mph - 0.00 in   Clear
3:35 PM 89.6 °F 98.2 °F 73.4 °F 59% 30.07 in 10.0 mi South 10.4 mph - 0.00 in   Clear
3:55 PM 89.6 °F 98.2 °F 73.4 °F 59% 30.07 in 10.0 mi South 8.1 mph - 0.00 in   Scattered Clouds
4:15 PM 87.8 °F 92.6 °F 69.8 °F 55% 30.07 in 10.0 mi South 4.6 mph - 0.00 in   Scattered Clouds
4:35 PM 87.8 °F 92.6 °F 69.8 °F 55% 30.07 in 10.0 mi South 6.9 mph - 0.00 in   Partly Cloudy
4:55 PM 86.0 °F 90.4 °F 69.8 °F 58% 30.07 in 10.0 mi South 8.1 mph - 0.00 in   Partly Cloudy
5:15 PM 84.2 °F 88.4 °F 69.8 °F 62% 30.07 in 10.0 mi SSW 8.1 mph - 0.00 in   Partly Cloudy
5:35 PM 86.0 °F 90.4 °F 69.8 °F 58% 30.05 in 10.0 mi SSW 11.5 mph - 0.00 in   Clear
5:55 PM 86.0 °F 90.4 °F 69.8 °F 58% 30.05 in 10.0 mi SSW 10.4 mph - 0.00 in   Clear
6:15 PM 86.0 °F 91.8 °F 71.6 °F 62% 30.06 in 10.0 mi SSW 8.1 mph - 0.00 in   Clear
6:35 PM 84.2 °F 88.4 °F 69.8 °F 62% 30.07 in 10.0 mi SSW 6.9 mph - 0.00 in   Clear
6:55 PM 84.2 °F 88.4 °F 69.8 °F 62% 30.06 in 10.0 mi SSW 6.9 mph - 0.00 in   Clear
7:15 PM 82.4 °F 87.2 °F 71.6 °F 70% 30.04 in 10.0 mi SSW 4.6 mph - 0.00 in   Clear
7:35 PM 82.4 °F 87.2 °F 71.6 °F 70% 30.04 in 10.0 mi Calm Calm - 0.00 in   Clear
7:55 PM 80.6 °F 85.4 °F 73.4 °F 79% 30.05 in 10.0 mi Calm Calm - 0.00 in   Clear
8:15 PM 80.6 °F 85.4 °F 73.4 °F 79% 30.05 in 10.0 mi Calm Calm - 0.00 in   Clear
8:35 PM 78.8 °F - 73.4 °F 83% 30.06 in 10.0 mi Calm Calm - 0.00 in   Clear
8:55 PM 80.6 °F 85.4 °F 73.4 °F 79% 30.07 in 10.0 mi Calm Calm - 0.00 in   Clear
9:15 PM 78.8 °F - 73.4 °F 83% 30.07 in 10.0 mi Calm Calm - 0.00 in   Clear
9:35 PM 78.8 °F - 73.4 °F 83% 30.06 in 10.0 mi Calm Calm - 0.00 in   Clear
9:55 PM 78.8 °F - 73.4 °F 83% 30.05 in 10.0 mi Calm Calm - 0.00 in   Clear
10:15 PM 77.0 °F - 73.4 °F 89% 30.06 in 10.0 mi Calm Calm - 0.00 in   Clear
10:35 PM 77.0 °F - 73.4 °F 89% 30.07 in 10.0 mi Calm Calm - 0.00 in   Clear
10:55 PM 77.0 °F - 73.4 °F 89% 30.07 in 10.0 mi Calm Calm - 0.00 in   Clear
11:15 PM 77.0 °F - 73.4 °F 89% 30.07 in 10.0 mi Calm Calm - 0.00 in   Clear
11:35 PM 78.8 °F - 75.2 °F 89% 30.07 in 10.0 mi Calm Calm - 0.00 in   Clear
11:55 PM 78.8 °F - 73.4 °F 83% 30.07 in 10.0 mi Calm Calm - 0.00 in   Clear